Theta_e
338 339 339 338 339 340 340 340 337 336 337 333 332 331 328 329 332 332 331 331 333 334 335 335 334 334 333 332 331 330 325 324 327 324 323 322 321 325 326 327 330 328 325 327 330 327 325 326 325 326 326 325 325 328 329 330 327 327 329 325 327 331
335 338 339 339 339 339 339 340 339 338 337 335 333 331 330 329 333 335 333 334 334 334 339 339 336 335 334 333 331 329 326 327 328 324 323 321 320 324 326 327 329 327 327 330 331 327 326 327 326 326 326 325 327 330 330 330 328 327 329 326 330 328
332 336 338 339 339 338 339 339 339 339 337 337 337 334 335 333 334 338 335 335 337 337 339 340 338 336 336 336 333 331 327 327 329 326 324 322 320 323 327 329 329 328 329 331 330 327 328 329 329 327 327 328 329 329 329 330 329 328 329 329 331 325
329 333 336 338 340 339 339 339 339 340 338 339 340 337 337 336 335 338 336 337 340 339 337 338 338 336 337 337 334 333 328 327 330 328 326 326 324 324 328 330 330 329 330 329 328 326 327 330 331 330 330 331 331 329 329 330 329 330 330 329 331 324
325 330 333 336 339 339 339 339 339 340 339 339 339 337 337 338 337 339 338 337 340 340 338 340 339 337 338 337 335 335 332 331 331 329 327 329 329 327 329 330 329 329 329 327 326 326 327 329 332 332 332 331 331 330 330 330 330 331 330 330 330 324
322 326 330 332 336 338 338 339 339 339 339 339 339 337 337 338 339 340 340 338 338 340 339 340 339 338 339 338 336 336 335 333 331 331 329 330 332 330 330 331 329 328 329 328 327 327 327 329 331 332 332 331 331 331 330 330 330 331 330 331 330 325
320 323 326 329 332 334 336 336 336 337 337 338 338 338 337 337 338 340 341 339 338 339 340 339 340 339 339 338 336 335 334 333 333 334 332 331 332 332 331 331 331 330 329 329 328 328 327 329 330 331 331 331 331 331 330 330 330 330 330 331 330 327
319 321 323 325 327 329 331 331 331 334 334 335 337 338 337 336 337 339 340 340 339 339 339 339 340 339 339 338 337 336 335 334 335 334 333 332 332 332 331 332 332 332 330 329 329 328 327 327 329 331 332 332 331 331 330 330 330 331 331 331 332 329
318 319 320 322 324 325 326 326 326 327 330 332 335 336 336 336 337 338 339 340 340 340 339 339 341 339 338 338 339 337 336 335 335 335 335 333 332 332 332 332 332 332 331 329 329 328 326 326 327 330 331 332 331 331 331 331 330 331 331 331 332 331
317 318 319 320 321 322 323 323 322 322 324 326 330 334 335 335 337 338 339 339 340 340 339 339 340 339 336 337 339 338 337 336 335 336 336 333 332 332 332 332 332 331 330 329 328 328 328 326 326 328 331 332 332 332 332 331 331 330 331 331 331 333
317 317 318 319 319 321 321 321 321 320 321 320 321 325 328 331 334 337 338 338 340 339 339 339 339 340 337 337 339 338 338 337 337 336 335 334 333 332 332 332 332 331 329 329 328 328 328 327 325 326 329 332 333 333 332 332 331 331 331 331 330 332
318 318 318 318 318 319 319 320 320 320 321 318 316 317 320 324 328 333 336 337 339 339 340 340 338 339 338 338 339 339 338 337 337 337 335 334 334 333 332 332 332 332 331 329 328 328 328 327 325 325 327 331 332 333 333 333 332 332 330 330 330 329
318 318 317 317 317 317 317 318 319 319 319 319 320 319 318 319 319 326 332 335 337 337 339 340 338 338 338 338 337 336 338 338 337 337 336 336 335 334 332 332 332 333 331 329 329 328 328 327 325 324 326 329 332 333 333 333 332 332 330 329 329 327
316 315 315 314 314 315 315 316 317 318 318 318 321 322 320 318 317 320 325 329 334 336 337 338 339 339 338 338 336 335 335 336 336 336 337 337 336 335 333 332 332 332 331 329 328 328 327 326 325 325 326 327 330 332 332 332 331 331 330 329 329 328
317 315 314 310 309 311 311 313 316 317 315 315 319 322 322 320 319 320 321 324 328 332 335 335 337 338 338 338 338 336 335 336 336 335 337 336 336 335 334 332 332 332 331 329 328 327 326 326 325 324 325 327 328 330 331 330 331 330 329 329 328 328
319 318 315 309 306 307 307 308 313 316 314 313 317 320 322 321 321 321 322 323 324 328 332 333 335 336 336 337 338 338 338 338 337 336 337 337 335 335 335 333 332 332 332 331 328 327 327 326 326 324 324 327 328 329 330 329 329 329 329 329 328 327
320 317 314 309 306 307 307 306 310 313 312 313 316 318 319 320 321 321 321 322 323 324 327 329 331 334 335 335 336 337 338 338 337 337 337 337 335 334 335 334 332 332 332 332 329 327 327 326 324 323 323 326 328 328 329 329 329 329 328 327 327 327
318 316 312 308 306 308 310 311 313 313 312 315 317 318 318 319 320 321 321 321 320 321 323 324 325 330 333 333 333 333 334 336 337 337 337 336 335 334 334 334 334 333 333 333 332 328 327 325 323 322 324 326 327 328 328 328 329 329 328 326 327 326
318 315 312 308 308 311 313 313 316 316 316 317 318 318 319 319 319 321 321 320 319 319 321 320 320 322 325 328 330 330 331 332 333 335 336 336 335 334 334 334 334 333 333 333 332 329 327 325 323 321 324 326 326 327 328 328 328 328 327 326 326 325
319 315 314 315 314 313 312 311 313 314 316 317 317 319 319 320 319 319 320 320 320 319 320 320 320 319 319 321 322 324 327 329 330 331 333 334 335 335 334 334 333 333 333 333 331 330 327 325 323 323 324 326 326 326 327 328 328 328 327 325 324 325
320 316 316 317 316 314 311 310 312 313 313 314 316 317 319 320 319 319 319 319 320 319 319 319 320 320 321 320 319 319 321 324 327 328 329 331 333 334 335 334 333 333 333 332 331 330 328 325 324 324 326 326 326 326 326 327 328 327 326 324 324 325
319 317 316 315 317 317 312 308 309 312 312 312 315 316 318 319 318 319 318 318 319 319 319 319 319 320 321 321 321 321 320 320 322 325 327 328 329 332 334 334 334 333 332 332 331 329 328 326 324 325 327 327 327 327 326 326 326 326 325 324 325 326
318 316 315 312 313 314 309 305 305 309 310 311 313 315 316 318 318 319 318 318 318 318 318 319 319 320 320 320 321 322 323 323 323 323 325 327 329 331 333 334 333 333 332 331 330 330 328 327 325 325 326 326 326 326 326 326 326 325 325 326 326 327
317 316 314 309 306 308 307 307 308 310 312 312 314 315 317 319 319 317 317 316 316 317 317 317 318 319 320 320 321 322 323 324 324 324 324 325 327 329 332 333 333 332 331 330 329 329 328 327 325 325 325 326 326 326 326 327 327 326 325 326 327 327
317 315 312 306 302 307 311 313 314 315 315 315 315 316 317 317 317 316 316 316 315 316 316 316 317 318 319 320 320 321 322 323 325 325 325 324 324 326 327 328 332 332 330 330 328 328 328 327 326 325 324 325 326 326 325 326 328 328 326 326 327 328
316 315 309 304 302 306 313 315 313 314 314 314 314 314 315 315 315 315 315 315 315 315 315 315 316 317 318 319 320 321 321 322 324 325 326 326 326 327 326 327 331 332 330 330 328 327 328 328 327 325 324 325 325 326 327 326 328 328 328 328 326 327
316 314 308 303 302 306 313 315 313 314 314 314 314 314 314 313 313 314 313 314 314 314 314 315 316 316 317 317 318 319 320 320 322 324 325 327 327 328 329 331 332 332 331 330 328 327 327 328 328 326 323 324 325 327 329 328 328 328 328 328 327 326
316 314 308 303 303 305 311 313 312 314 314 313 314 313 313 312 312 312 312 313 313 314 314 314 315 315 316 316 317 318 319 319 320 322 323 325 327 327 328 330 331 331 331 330 328 326 327 328 328 327 324 324 326 328 328 328 328 328 327 327 327 326
315 315 308 303 303 304 306 309 311 313 313 313 313 312 312 312 312 311 312 312 312 313 313 314 314 314 315 316 316 317 317 318 319 320 321 322 325 326 328 328 329 330 330 330 329 327 326 328 328 327 327 326 327 328 327 327 327 328 327 326 326 326
316 315 309 304 304 304 304 308 312 312 312 313 312 312 312 312 311 311 311 311 311 312 313 313 313 313 314 314 315 316 316 317 318 319 319 321 322 324 326 327 327 328 329 330 329 328 326 326 327 328 328 327 328 328 328 328 328 327 327 326 325 326
317 315 311 306 305 308 308 310 311 309 310 312 312 312 312 312 311 310 310 310 310 311 312 312 312 312 313 313 314 315 316 316 317 317 318 319 321 322 324 326 327 327 328 329 328 328 327 326 326 327 327 327 327 328 328 328 329 328 327 328 326 326
317 315 312 309 308 310 312 311 310 308 309 311 311 311 311 311 311 310 310 309 310 310 310 311 312 311 312 312 312 313 314 315 316 316 317 318 319 321 323 325 327 327 328 329 329 328 327 326 325 325 326 326 326 327 327 327 329 329 328 328 328 327
318 316 312 310 310 311 312 312 310 308 309 310 310 310 310 310 310 310 309 309 309 309 309 310 310 311 311 311 311 312 313 314 315 316 316 317 318 319 321 323 324 326 328 328 329 328 328 327 326 325 324 325 326 326 326 327 328 329 329 329 328 327
318 316 312 311 312 312 312 310 308 308 308 309 309 309 309 309 309 309 309 308 308 308 308 308 309 309 309 310 310 311 311 312 313 314 315 316 317 318 319 321 322 324 326 327 328 328 328 328 327 325 324 324 325 325 326 327 328 328 328 329 328 327
318 316 312 311 312 312 311 310 308 306 308 308 309 308 308 308 308 309 308 308 308 307 307 307 307 307 307 308 308 309 310 310 311 312 313 314 316 317 318 319 320 322 324 326 326 327 328 328 328 327 325 324 325 326 326 327 328 328 328 329 328 328
318 316 313 311 312 311 310 309 306 305 307 307 308 308 307 307 307 307 307 307 307 307 307 307 307 307 306 306 307 307 308 309 310 311 312 313 315 316 317 318 319 320 321 324 325 326 328 327 327 328 327 325 325 326 327 326 327 329 329 329 329 328
318 316 312 311 311 310 309 309 307 306 307 307 307 307 307 307 307 306 306 306 307 307 307 307 307 306 306 306 306 306 307 308 308 310 311 312 313 314 316 317 318 319 320 322 323 325 327 328 328 328 328 327 326 326 326 326 327 327 328 329 329 329
Wind_Speed
12 10 8 7 7 10 15 18 19 19 20 19 17 15 16 16 16 17 17 17 16 16 17 16 16 16 16 18 19 18 17 15 14 13 13 13 13 13 14 15 18 17 13 12 10 8 8 8 9 10 9 8 6 5 4 3 3 3 3 4 4 3
11 10 8 7 6 7 11 12 15 19 19 18 16 15 16 16 17 17 18 17 16 15 14 14 15 15 15 19 21 19 19 17 15 14 13 13 13 14 16 18 20 17 14 12 8 7 7 8 9 10 9 9 7 6 5 3 4 3 3 4 4 4
10 10 8 8 7 7 10 9 11 15 17 16 14 14 15 16 17 16 17 16 15 15 13 12 13 13 14 20 22 20 21 19 16 15 14 13 13 14 16 18 19 18 14 11 8 6 6 8 9 11 10 9 8 7 5 4 4 4 4 4 4 4
9 9 8 8 7 6 7 8 9 11 14 14 13 15 15 15 16 13 14 15 13 13 12 11 11 11 12 18 23 23 22 21 18 17 16 14 14 15 16 16 16 16 13 10 7 6 6 7 9 11 10 10 8 7 6 5 4 4 4 5 5 5
8 7 6 6 6 5 4 6 7 7 10 11 11 15 14 13 14 12 12 13 12 11 11 10 10 10 9 14 23 24 22 22 20 18 18 16 15 16 15 14 14 13 11 9 7 6 6 6 8 10 10 10 8 7 7 6 5 4 4 5 6 5
6 6 6 5 4 5 5 4 5 4 5 7 8 11 12 11 11 11 12 12 11 11 11 10 9 9 9 10 18 23 25 23 21 19 18 16 15 16 15 13 13 12 10 9 8 7 7 6 7 9 9 9 9 8 8 7 5 5 4 5 6 6
4 5 5 4 4 4 5 4 4 6 5 6 7 7 9 11 10 10 11 10 11 11 11 11 10 10 10 10 14 21 24 22 19 18 18 16 15 16 15 13 12 12 10 9 9 8 8 8 8 8 9 9 9 9 8 7 6 5 5 5 6 6
5 4 4 4 4 5 6 5 2 4 4 6 7 5 6 8 9 10 10 10 11 12 12 12 12 12 12 11 13 18 20 18 17 17 17 16 15 15 14 12 12 11 10 9 9 9 9 9 9 9 10 9 10 10 9 8 6 6 6 5 6 6
5 4 3 3 3 4 6 6 6 3 1 3 6 7 7 6 6 9 10 11 11 13 14 13 14 16 16 14 14 17 17 17 17 15 16 17 15 14 13 11 11 11 10 9 9 9 9 10 10 10 11 11 10 11 10 9 7 6 6 6 6 7
6 5 4 4 3 4 5 6 6 6 5 3 1 5 8 7 6 8 9 11 12 13 17 15 15 16 19 17 16 18 18 18 18 16 16 17 14 13 13 12 11 11 10 10 9 9 9 10 11 11 12 11 11 11 11 10 8 7 7 6 6 7
7 8 6 5 5 5 6 6 6 5 5 5 5 3 3 5 8 8 7 10 12 14 16 16 15 14 17 18 15 17 19 18 17 16 16 16 14 13 13 12 11 11 10 10 10 9 10 11 11 12 12 12 12 12 12 11 10 9 8 7 7 7
7 8 8 7 7 7 7 6 7 6 5 5 6 6 6 6 6 8 8 9 10 12 14 16 17 16 15 16 16 16 17 18 17 16 16 14 13 13 13 12 11 11 10 9 9 9 10 11 12 12 12 13 13 12 12 12 11 10 9 8 7 7
7 8 9 8 8 7 7 7 7 7 6 6 5 5 4 6 7 7 9 11 12 11 12 15 17 17 15 15 18 19 17 18 18 15 14 13 13 14 13 12 10 10 10 9 9 9 10 11 12 12 12 13 13 13 13 13 11 10 9 9 8 8
7 8 9 9 9 8 8 8 7 7 7 6 4 4 4 5 6 7 9 11 14 14 13 13 13 15 16 15 17 22 22 19 17 16 14 13 13 14 13 11 10 11 10 10 10 10 11 11 12 13 13 13 14 14 14 13 12 11 10 10 9 8
5 6 8 10 11 10 10 9 7 7 9 8 5 3 4 4 4 5 7 8 12 14 15 14 12 12 17 18 16 20 23 18 15 16 14 14 14 14 14 12 11 11 11 11 11 11 12 11 12 13 13 13 14 14 14 14 13 12 11 11 10 10
3 4 6 10 13 13 13 12 9 8 11 11 7 4 3 3 3 3 4 5 7 11 13 13 14 12 13 16 17 19 20 18 17 16 15 14 15 14 14 14 13 13 12 12 12 12 11 11 11 12 13 13 14 14 15 15 14 13 12 12 11 11
2 3 5 9 12 12 13 15 12 11 13 11 8 5 4 4 3 3 4 3 4 7 8 9 13 15 11 10 14 17 17 18 19 19 17 14 15 16 14 15 15 14 13 12 12 12 11 11 11 12 13 13 14 14 15 15 15 14 14 13 12 12
1 3 5 8 11 12 13 13 12 12 14 12 8 6 5 4 3 2 3 3 4 4 5 8 12 15 14 10 9 11 13 17 19 21 22 19 16 18 17 16 15 15 13 12 12 12 11 11 10 12 13 14 14 15 15 16 16 15 15 14 14 13
0 2 4 8 10 10 11 10 9 10 11 10 8 7 6 5 3 2 3 3 4 4 4 7 10 14 17 16 14 13 13 16 18 18 22 25 23 20 19 18 17 16 15 13 12 11 11 10 10 11 12 13 15 15 15 16 16 16 16 15 14 13
2 1 3 5 6 7 8 9 10 10 9 9 9 8 6 5 4 3 3 4 4 4 4 5 7 10 13 15 17 18 17 19 19 17 18 24 29 26 22 21 19 17 17 15 13 13 12 11 10 11 11 12 13 14 16 16 17 17 17 16 15 14
4 2 2 2 2 5 8 9 10 11 11 10 10 8 6 5 5 4 4 5 3 3 4 4 5 6 8 9 12 14 17 20 22 21 20 23 29 29 25 23 21 19 18 16 15 16 15 13 12 11 11 12 13 13 15 16 18 18 18 17 16 15
4 2 2 2 2 3 6 9 9 8 10 10 9 8 7 6 6 4 5 5 4 4 4 4 4 4 6 7 8 10 12 14 17 21 22 23 26 29 27 24 21 19 20 18 17 18 17 15 14 13 12 10 11 12 15 17 19 19 20 18 17 16
4 2 2 3 3 3 6 10 11 9 10 9 7 8 8 6 5 5 5 5 6 6 6 5 4 5 5 6 7 8 9 9 11 16 21 23 24 25 28 28 24 22 21 19 18 18 19 19 16 13 12 9 8 9 12 16 19 20 20 19 17 17
4 2 2 3 5 6 8 10 11 10 10 9 7 7 7 5 5 6 6 6 7 7 7 6 6 6 6 7 7 8 9 10 11 14 18 23 23 22 24 28 30 28 24 20 19 21 21 22 19 14 11 8 8 8 8 11 17 19 20 20 19 18
5 3 1 2 5 6 6 6 6 6 6 7 7 6 6 6 7 8 8 8 8 8 7 7 7 6 7 8 8 8 9 10 11 12 15 20 24 24 23 25 29 31 30 27 23 22 21 23 23 20 14 9 8 7 6 9 11 13 17 20 19 20
7 4 3 1 4 5 4 4 5 5 5 6 6 6 7 7 8 8 8 9 9 8 8 8 8 8 7 8 9 9 9 9 10 11 13 16 19 22 23 26 31 33 33 33 29 23 20 22 24 25 21 16 11 7 6 8 8 7 12 16 18 20
8 6 5 3 2 4 4 4 5 5 4 5 5 5 5 6 7 7 9 9 9 9 8 8 8 8 8 9 9 10 11 10 10 11 12 14 16 18 21 23 28 33 33 33 31 24 20 20 20 23 24 21 18 13 9 8 7 6 7 11 15 19
10 8 7 4 2 3 3 2 4 3 3 3 3 3 4 4 6 7 8 9 9 9 9 8 8 8 8 9 9 10 10 11 12 12 11 13 15 17 20 19 21 28 31 31 31 30 26 21 18 20 22 21 20 18 15 12 10 9 7 6 10 14
12 10 8 6 4 2 2 2 2 2 2 2 2 2 2 3 4 6 7 9 10 10 9 9 8 8 8 8 9 10 10 11 12 13 13 13 14 15 18 21 22 25 28 30 31 33 31 26 22 21 21 20 20 20 19 18 15 14 11 9 8 8
13 11 10 9 6 4 2 2 0 1 2 2 2 2 2 2 3 4 7 8 9 9 9 9 9 9 9 9 9 9 10 11 12 13 14 14 15 15 16 19 24 26 28 30 30 31 32 31 29 26 22 19 17 18 19 18 18 18 15 14 12 8
14 12 11 10 8 6 4 3 2 0 1 1 1 2 2 2 3 4 6 7 8 9 9 9 10 9 9 9 9 9 9 10 11 12 14 15 16 16 16 18 21 25 28 30 31 31 32 35 33 29 26 23 20 20 20 19 18 19 17 15 12 8
16 14 12 11 9 7 6 4 2 1 1 1 1 1 2 2 3 3 5 5 6 8 8 9 9 9 10 9 10 10 10 10 11 12 14 15 16 16 16 17 19 22 25 29 32 33 33 34 35 32 31 30 28 26 25 24 21 19 19 17 14 10
16 15 13 11 10 8 7 5 3 2 2 1 1 2 2 3 3 4 4 5 6 7 8 8 9 9 10 10 10 11 11 11 11 12 13 14 17 18 17 17 18 21 24 26 29 34 36 37 36 36 36 34 32 30 30 29 24 21 20 19 17 13
16 15 14 12 11 9 8 6 4 3 3 2 2 3 3 3 4 4 5 6 6 7 8 8 9 10 10 11 11 12 13 13 13 14 14 15 16 18 19 19 19 20 23 24 26 30 34 36 37 39 40 38 34 33 35 32 26 25 24 22 20 17
17 16 15 13 11 10 8 6 4 3 3 3 3 4 4 4 4 5 5 6 7 8 9 9 9 10 11 12 12 13 14 15 15 15 16 16 17 17 19 20 20 21 21 22 24 27 30 34 35 38 42 42 39 37 38 36 30 28 28 25 22 20
18 16 16 14 12 10 8 7 5 3 3 4 4 4 5 5 5 6 7 7 8 9 9 10 10 10 11 12 13 13 14 15 16 16 16 16 17 17 18 19 21 22 22 21 21 24 28 31 32 34 39 43 43 40 39 39 35 30 29 27 23 22
17 16 15 14 12 10 8 7 5 4 4 5 5 6 6 6 7 7 8 8 9 9 10 10 11 11 12 13 14 14 15 16 16 17 17 17 17 18 19 20 21 23 24 23 22 22 24 27 30 31 33 37 41 42 41 40 39 35 31 29 26 26
Wind_Direction
62 66 74 85 127 160 172 172 170 172 177 174 175 183 180 180 179 177 181 182 183 182 178 181 185 181 183 180 174 175 175 178 174 169 168 162 160 163 166 166 163 160 158 156 148 144 144 155 174 179 176 170 162 169 183 167 158 149 140 146 135 168
60 62 66 75 100 149 163 164 172 176 179 177 176 184 183 184 185 182 185 187 184 184 178 174 179 182 187 182 178 180 178 182 183 179 177 171 169 167 166 164 163 167 167 168 162 154 155 161 179 186 179 172 174 189 189 173 174 159 152 143 141 185
57 59 63 72 90 136 155 157 170 175 175 175 177 186 186 188 193 189 186 189 186 187 182 174 179 180 184 180 179 184 183 185 188 186 185 181 179 173 171 169 169 172 176 182 177 165 167 167 179 188 187 184 190 198 189 187 187 167 167 148 160 193
56 58 59 68 84 121 157 162 162 168 171 173 180 186 190 193 198 197 190 193 193 191 184 182 183 178 184 181 181 188 190 188 187 188 189 183 184 183 180 180 181 182 181 186 185 177 177 171 176 183 189 194 197 198 189 196 195 179 173 152 184 204
55 60 58 65 74 97 146 161 154 162 171 177 185 188 193 197 200 205 203 201 200 195 190 189 181 177 185 177 179 187 188 187 186 189 188 180 183 187 184 184 188 189 184 186 186 187 191 186 184 184 189 198 201 198 194 198 198 190 174 162 201 217
55 60 59 64 65 79 109 130 145 155 168 180 187 194 198 199 201 209 211 207 205 202 201 199 183 182 193 180 180 187 187 185 186 188 187 184 184 185 186 183 185 188 187 189 192 195 202 205 203 196 195 201 203 201 199 201 198 198 185 180 212 220
53 58 59 63 62 70 84 93 142 157 168 185 188 206 209 205 205 210 215 211 208 208 208 205 193 188 194 190 181 184 188 185 184 187 188 191 189 187 191 189 186 189 191 194 197 203 210 215 218 214 209 205 206 203 202 204 199 202 198 191 218 229
49 52 55 53 57 65 73 67 81 163 181 190 185 204 221 220 219 215 219 216 213 213 214 210 202 194 189 192 182 179 187 185 186 191 191 196 195 192 196 195 191 190 195 200 204 211 218 220 221 225 223 215 210 207 206 208 203 206 206 196 214 227
49 45 46 42 41 52 65 62 37 32 98 184 189 197 205 225 240 231 226 221 220 218 218 214 208 198 187 190 187 181 188 190 192 196 198 201 200 198 199 198 196 195 199 205 209 214 219 224 222 226 230 222 213 210 209 210 210 209 211 207 211 219
51 43 41 39 32 29 39 50 37 25 30 34 232 209 204 214 224 228 230 225 226 226 221 218 216 204 191 192 191 186 189 194 197 199 203 204 201 199 200 199 200 202 206 210 215 216 219 226 224 223 228 225 215 211 210 210 213 213 212 213 211 220
51 45 41 41 38 26 24 31 27 25 29 16 350 325 271 247 222 214 220 222 228 233 229 226 224 214 200 196 194 193 194 197 199 201 204 205 202 200 200 201 204 209 214 217 221 220 221 227 227 222 223 225 218 212 212 212 213 215 214 215 213 218
49 43 41 40 40 31 23 18 16 22 21 5 353 344 332 309 266 232 221 220 226 231 233 233 227 219 213 207 202 200 202 204 203 202 205 205 203 204 205 204 206 211 214 217 222 223 224 228 229 223 220 221 217 211 212 212 214 216 215 217 218 217
50 42 40 36 34 30 23 14 9 12 10 8 2 348 330 318 305 272 244 232 230 229 230 234 230 221 217 217 212 207 208 210 207 205 206 206 204 208 210 208 206 207 205 209 217 221 225 229 229 225 221 218 215 213 211 210 213 215 215 219 221 220
53 44 39 31 29 23 16 13 8 3 1 6 6 353 338 326 316 289 269 251 239 234 230 228 233 231 220 217 218 216 215 215 210 206 205 205 206 209 212 210 208 205 201 207 218 221 224 229 227 222 220 217 215 215 213 212 213 213 215 219 221 222
60 45 36 29 29 25 16 13 6 358 355 359 1 355 353 348 331 293 284 276 256 246 238 227 227 238 230 220 217 219 218 217 213 210 209 208 207 209 212 211 212 211 208 214 222 223 224 227 224 217 215 215 215 214 213 215 216 215 217 219 221 224
73 42 28 24 27 26 21 17 11 1 356 359 0 356 356 352 344 317 298 291 277 260 249 237 227 228 235 229 223 221 219 216 213 214 215 212 209 208 209 213 217 218 217 220 223 224 222 222 219 215 212 212 213 213 213 215 217 219 219 220 223 224
79 26 20 19 21 19 18 18 15 8 3 4 3 360 353 345 341 333 324 311 296 272 254 248 235 223 223 232 230 228 227 223 218 217 217 212 213 215 214 217 217 218 222 225 227 227 221 218 216 212 209 209 212 214 216 217 217 220 222 223 225 225
29 6 17 22 21 15 14 16 13 8 8 8 6 2 354 348 340 332 338 322 310 291 263 257 250 235 227 229 229 229 230 226 222 223 223 219 221 224 223 224 220 217 218 227 234 231 227 221 213 208 206 207 211 215 218 220 219 221 224 223 225 226
124 354 11 27 25 16 13 14 10 7 8 6 2 0 358 1 353 341 351 332 313 299 279 267 263 252 243 241 239 233 234 230 226 228 228 225 225 222 221 223 224 221 215 224 238 237 234 226 212 207 207 205 209 216 220 223 223 223 225 225 226 228
150 15 9 27 23 15 15 12 10 8 6 2 359 357 0 10 8 352 346 340 326 304 292 275 265 261 254 252 251 248 247 243 238 236 233 230 225 220 219 219 219 220 215 220 233 236 232 227 217 207 207 209 209 217 221 223 225 226 227 227 229 229
149 84 55 52 28 29 25 14 8 6 2 359 355 354 356 1 4 359 347 345 337 318 306 286 268 258 253 254 258 256 251 247 243 239 238 238 231 224 221 218 214 216 217 215 218 227 225 221 217 202 200 210 211 218 222 223 227 229 231 231 231 228
153 121 89 65 58 55 32 18 11 4 357 355 353 350 346 343 348 352 351 353 347 332 321 303 283 265 257 250 250 254 253 250 244 238 236 239 238 231 222 214 209 210 216 213 212 223 223 216 216 203 195 202 207 218 223 226 230 231 232 232 230 226
157 136 87 49 58 57 27 19 14 8 4 0 355 346 342 338 345 351 348 349 344 332 325 312 293 280 270 257 248 247 248 247 241 236 233 233 238 236 225 213 208 209 213 212 214 226 222 216 221 209 197 203 203 210 218 222 228 230 229 228 227 226
162 146 91 32 41 36 22 18 11 7 9 7 1 350 347 349 346 345 339 332 330 325 321 311 296 285 271 262 259 251 246 241 236 236 234 231 231 233 229 218 212 212 210 206 212 226 222 216 225 220 205 210 204 206 219 214 217 223 223 222 223 224
171 162 137 30 40 38 28 23 11 5 10 7 5 1 357 354 345 338 331 325 324 321 315 308 300 293 280 269 265 259 253 245 238 235 233 231 229 229 234 230 221 215 213 209 208 220 223 215 222 229 227 225 209 209 231 211 205 215 216 219 223 221
182 173 182 144 53 48 38 30 22 17 13 6 5 7 359 347 340 333 326 322 321 320 312 306 302 296 289 281 274 269 264 256 248 242 236 235 233 231 234 234 227 219 216 214 207 210 223 217 218 229 232 235 239 244 247 219 208 215 210 216 226 225
188 180 195 193 85 61 49 28 26 28 23 16 8 3 355 338 332 326 321 321 319 319 314 306 302 295 290 287 284 279 271 265 259 253 245 240 238 235 234 232 224 217 215 214 208 206 221 221 217 226 231 234 243 252 257 239 227 227 213 213 223 227
189 185 197 202 160 88 74 28 23 35 32 23 9 357 349 334 330 323 317 318 315 313 311 306 302 297 294 289 286 283 277 272 265 261 256 248 244 240 239 238 227 219 216 214 210 207 216 220 212 220 231 234 238 244 249 250 244 241 242 229 218 224
190 189 198 205 199 148 92 42 17 37 35 16 359 354 349 331 328 323 316 314 312 310 307 304 301 299 300 295 289 284 280 276 268 264 262 256 252 247 244 242 235 228 222 217 214 210 212 217 212 215 225 229 233 239 245 247 245 245 250 249 236 221
191 191 198 206 204 188 135 88 92 44 47 21 345 339 343 336 325 320 315 312 311 309 307 304 300 297 298 298 294 287 280 276 271 267 265 262 257 253 253 248 240 236 231 225 221 216 214 217 217 216 219 222 227 233 239 241 238 240 245 246 250 237
194 192 196 203 201 190 176 158 179 261 60 50 334 322 322 325 315 312 309 307 308 306 304 302 299 296 295 296 295 289 281 276 272 267 264 264 261 257 257 254 246 241 238 233 229 223 218 218 219 218 219 221 223 229 237 241 236 236 238 240 245 243
197 193 191 197 196 187 182 176 181 166 105 120 279 290 296 298 298 298 293 296 302 300 299 299 296 295 292 291 293 289 283 278 274 268 263 262 262 261 260 258 253 245 238 235 233 227 220 219 218 217 219 222 223 227 236 242 241 237 237 240 239 237
197 193 188 192 190 183 180 177 176 163 146 168 229 256 271 277 276 280 280 284 290 291 292 293 292 290 286 285 286 283 281 280 276 272 268 263 261 261 262 260 257 250 241 235 233 228 223 221 218 215 217 222 224 225 230 237 242 239 236 237 235 235
199 192 186 185 183 179 177 176 177 164 158 181 220 242 254 263 266 270 273 276 281 281 280 281 283 282 281 280 277 275 276 275 274 274 272 267 263 260 261 259 257 255 249 242 236 231 226 223 221 218 217 219 223 226 228 230 235 238 236 233 231 231
198 190 183 181 179 175 173 173 175 170 171 189 213 231 244 253 259 266 269 272 274 274 273 273 274 276 276 276 274 272 273 272 272 273 271 267 263 261 259 257 254 253 253 249 242 236 230 225 221 220 221 221 221 225 227 227 228 234 235 232 231 228
198 189 181 179 175 172 172 174 177 181 183 196 217 228 237 244 252 262 267 269 271 270 271 271 271 272 273 272 271 271 271 270 270 270 268 266 264 262 259 255 253 251 250 250 246 240 235 229 222 220 221 221 221 223 226 226 226 229 232 233 236 232
198 187 178 176 172 170 170 172 178 182 188 203 220 230 235 242 251 262 264 266 270 270 270 271 271 272 273 270 269 269 269 269 268 267 266 265 264 263 260 255 252 249 247 246 247 245 240 234 229 224 221 220 221 223 225 226 227 227 229 230 235 237